MAX VALIER SAT (42778 NORAD) Tracking and Keplerian Element Data

This shows tracking and keplerian element data for the satellite.

Feedback or suggestion? Click here.




ElementValue
Catalog42778
NameMAX VALIER SAT
Epoch Orbit36514
Epoch Day13.10007508
Epoch Year2024
RAAN49.5764
Inclination97.1285
Eccentricity0.0007221
Argument of Perigee64.8039
Mean Anonmoly295.3963
Mean Motion15.53641078
Decay Rate0.00048363
L11 42778U 17036P 24013.10007508 .00048363 00000+0 75522-3 0 9993
L22 42778 97.1285 49.5764 0007221 64.8039 295.3963 15.53641078365145



Live tracking and technical data element details for MAX VALIER SAT (NORAD 42778). MAX VALIER SAT can be tracked NOW for your location showing map with azimuth and elevation plus other details from your city location.







IsCatalogInMostPopularTable: catalog: 42778, numindb: 741
Update: records affected: 1



GetName: 42778 MAX VALIER SAT

Hit Count: updated at: Fri, 19 Apr 2024 13:16:33 GMT